This demonstration page uses our WeatherBlox Daily Observations layout. Learn more.

Left ArrowRight Arrow

39.01783, -85.05884

Hourly Observations for August 29, 2017

Temp ( °F °C ) Dew Point ( °F °C ) Humidity (%) Winds ( mph kmh ) Pressure ( in mb ) Visibility ( mi km ) Precip ( " mm )
12:52 am 00:52 Partly Cloudy 65 18.3 64 17.8 97 97 S 7 11 30.00 1016 10 16 0.00 0.00
1:52 am 01:52 Partly Cloudy 65 18.3 64 17.8 97 97 SSW 3 6 30.01 1016 10 16 0.00 0.00
2:29 am 02:29 Cloudy 65 18.3 64 17.8 97 97 SSE 3 6 30.00 1016 10 16 0.00 0.00
2:52 am 02:52 Cloudy 64 17.8 64 17.8 100 100 SSE 7 11 30.00 1016 10 16 0.00 0.00
3:52 am 03:52 Cloudy 65 18.3 65 18.3 100 100 S 3 6 29.99 1016 10 16 0.00 0.00
4:21 am 04:21 Cloudy 64 17.8 64 17.8 100 100 S 5 7 29.97 1015 9 14 0.00 0.00
4:41 am 04:41 Cloudy 64 17.8 64 17.8 100 100 Calm 30.03 1017 9 14 0.00 0.00
4:52 am 04:52 Cloudy 65 18.3 65 18.3 100 100 S 3 6 30.00 1016 9 14 0.00 0.00
5:28 am 05:28 Cloudy 66 18.9 65 18.3 96 96 N 9 15 30.00 1016 10 16 0.00 0.00
5:52 am 05:52 Cloudy with Light Rain 66 18.9 63 17.2 90 90 N 8 13 30.01 1016 10 16 0.00 0.03
6:16 am 06:16 Cloudy with Light Rain 65 18.3 63 17.2 93 93 NNE 5 7 30.00 1016 8 13 0.01 0.25
6:52 am 06:52 Cloudy with Light Rain 64 17.8 63 17.2 96 96 ENE 8 13 30.02 1017 8 13 0.02 0.51
7:52 am 07:52 Cloudy with Light Rain 64 17.8 64 17.8 100 100 E 7 11 30.01 1016 7 11 0.07 1.78
8:43 am 08:43 Cloudy 65 18.3 65 18.3 100 100 ESE 3 6 30.00 1016 10 16 0.00 0.03
8:52 am 08:52 Cloudy 66 18.9 65 18.3 96 96 SE 5 7 30.02 1017 8 13 0.00 0.03
9:52 am 09:52 Cloudy 67 19.4 66 18.9 97 97 SE 9 15 30.01 1016 7 11 0.00 0.00
10:52 am 10:52 Mostly Cloudy 69 20.6 66 18.9 90 90 S 7 11 30.02 1017 9 14 0.00 0.00
11:52 am 11:52 Mostly Cloudy 72 22.2 66 18.9 82 82 SSE 3 6 30.03 1017 10 16 0.00 0.00
12:52 pm 12:52 Mostly Cloudy 75 23.9 66 18.9 74 74 Calm 30.01 1016 10 16 0.00 0.00
1:06 pm 13:06 Mostly Cloudy 74 23.3 67 19.4 79 79 S 6 9 30.00 1016 10 16 0.00 0.00
1:52 pm 13:52 Mostly Cloudy 75 23.9 66 18.9 74 74 W 5 7 29.99 1016 10 16 0.00 0.00
2:12 pm 14:12 Cloudy with Light Rain 74 23.3 67 19.4 79 79 S 6 9 30.00 1016 10 16 0.00 0.03
2:24 pm 14:24 Cloudy with Nearby Thunderstorms 71 21.7 68 20 90 90 SSE 13 20 30.00 1016 8 13 0.00 0.03
2:52 pm 14:52 Cloudy with Light Rain 71 21.7 68 20 90 90 S 7 11 30.00 1016 9 14 0.00 0.03
3:10 pm 15:10 Cloudy with Nearby Thunderstorms 71 21.7 69 20.6 94 94 S 3 6 30.00 1016 3 4 0.02 0.51
3:22 pm 15:22 Cloudy with Light Rain 72 22.2 70 21.1 94 94 SSE 5 7 29.97 1015 5 8 0.05 1.27
3:52 pm 15:52 Mostly Cloudy 75 23.9 68 20 79 79 E 6 9 29.98 1015 10 16 0.05 1.27
4:15 pm 16:15 Mostly Cloudy with Thunderstorms 75 23.9 67 19.4 76 76 N 9 15 29.97 1015 10 16 0.00 0.03
4:30 pm 16:30 Cloudy with Strong Thunderstorms 69 20.6 69 20.6 100 100 NW 9 15 29.97 1015 2 3 0.10 2.54
4:52 pm 16:52 Mostly Cloudy with Thunderstorms 67 19.4 67 19.4 100 100 S 3 6 30.00 1016 4 6 0.34 8.64
5:14 pm 17:14 Mostly Cloudy with Light Rain 69 20.6 69 20.6 100 100 SSE 3 6 29.97 1015 6 10 0.00 0.03
5:31 pm 17:31 Mostly Cloudy 72 22.2 70 21.1 94 94 Calm 29.97 1015 8 13 0.00 0.03
5:52 pm 17:52 Mostly Cloudy 71 21.7 69 20.6 94 94 ENE 6 9 29.99 1016 9 14 0.00 0.03
6:52 pm 18:52 Mostly Cloudy 72 22.2 69 20.6 91 91 ESE 7 11 29.98 1015 10 16 0.00 0.00
7:52 pm 19:52 Mostly Cloudy 70 21.1 67 19.4 90 90 Calm 29.98 1015 10 16 0.00 0.00
8:52 pm 20:52 Mostly Cloudy with Mist and Fog 67 19.4 67 19.4 100 100 Calm 29.98 1015 6 10 0.00 0.00
9:52 pm 21:52 Mostly Cloudy 69 20.6 68 20 96 96 NE 3 6 29.99 1016 9 14 0.00 0.00
10:52 pm 22:52 Mostly Cloudy 66 18.9 66 18.9 100 100 Calm 30.00 1016 7 11 0.00 0.00
11:45 pm 23:45 Partly Cloudy with Mist and Fog 66 18.9 66 18.9 100 100 Calm 30.00 1016 4 6 0.00 0.00
11:52 pm 23:52 Partly Cloudy with Mist and Fog 65 18.3 65 18.3 100 100 Calm 30.00 1016 4 6 0.00 0.00

Powered by AerisWeather